Theta_e
318 316 310 314 321 324 334 337 335 334 339 337 336 342 340 344 345 351 355 359 364 362 360 359 357 358 359 359 358 357 357 356
312 310 312 320 325 328 334 336 337 336 333 341 346 344 348 347 345 345 348 354 361 362 360 360 358 358 359 358 357 356 355 355
311 311 315 322 328 332 330 330 332 333 328 334 346 349 348 342 341 341 344 349 357 361 361 359 358 358 359 358 358 356 354 354
310 314 321 325 331 333 329 331 331 328 329 334 347 341 342 342 341 342 345 349 355 360 360 361 360 359 358 358 357 356 355 354
309 315 320 324 331 331 328 330 329 332 326 337 341 342 342 342 343 343 346 347 349 349 356 357 358 358 357 356 356 356 354 353
310 309 317 327 329 333 331 329 338 336 325 329 342 345 346 343 343 343 343 344 345 347 346 348 347 356 356 356 355 350 345 347
310 310 316 330 328 334 336 333 335 336 334 337 348 350 346 341 340 340 341 343 344 345 346 348 348 352 354 353 350 345 344 340
315 316 318 327 327 331 328 330 332 334 343 344 347 348 341 336 336 338 340 341 343 346 347 347 345 349 346 341 337 337 336 336
314 317 320 324 326 333 327 326 331 330 339 343 344 345 340 335 337 339 341 341 345 349 350 344 340 340 338 337 337 339 340 342
313 317 318 320 327 329 329 328 334 334 342 342 341 341 341 335 337 340 341 339 343 345 349 347 340 339 338 336 336 337 339 342
315 314 315 318 322 327 330 332 335 336 340 341 340 340 344 339 339 342 342 338 338 342 347 347 347 341 342 343 337 340 343 343
315 315 315 315 319 325 328 333 333 335 337 342 340 339 344 342 341 343 347 341 338 341 348 347 347 348 346 348 345 343 339 338
313 313 312 318 316 320 327 330 330 334 336 341 342 339 343 345 344 346 348 351 343 343 346 348 346 347 346 345 341 339 337 336
312 316 316 316 309 318 326 327 327 330 336 340 343 341 342 347 347 350 349 353 350 342 343 349 347 345 342 340 337 336 335 333
308 316 316 316 311 319 323 326 326 330 334 339 341 344 345 345 349 351 353 352 355 352 343 347 347 342 339 338 334 333 331 329
307 311 315 314 312 317 322 328 328 329 332 335 339 342 347 348 349 353 355 356 356 354 350 350 344 340 335 333 332 331 328 325
309 311 309 310 311 313 315 320 321 324 328 333 337 342 348 350 351 352 348 350 349 347 347 347 343 336 333 331 330 328 326 323
309 311 311 310 309 313 315 317 321 324 327 331 337 341 340 340 345 344 343 343 344 345 344 345 346 344 340 334 329 327 324 321
305 309 311 309 308 311 314 322 327 327 329 331 331 333 334 332 336 335 337 339 340 342 342 341 340 336 333 331 330 326 322 316
307 306 302 310 301 309 313 316 321 324 326 326 327 328 330 332 331 330 330 333 334 335 335 335 336 336 336 332 330 317 317 314
Wind_Speed
5 5 8 9 6 9 10 5 6 5 2 3 5 6 13 15 14 13 13 13 14 13 13 13 13 12 11 10 10 10 10 10
9 1 7 5 8 8 11 7 3 5 7 6 6 10 8 15 15 13 13 13 15 12 12 12 12 11 11 10 10 10 10 8
6 4 5 5 8 9 8 6 7 3 7 6 8 6 14 14 12 11 11 13 14 10 11 12 12 12 10 10 9 8 9 9
7 7 6 5 9 9 7 7 7 5 9 8 12 12 13 13 11 10 10 11 13 11 10 10 10 9 9 9 9 9 8 8
3 9 9 9 10 10 7 9 8 8 9 8 12 13 13 12 10 9 11 10 11 13 11 9 9 9 9 8 7 7 6 5
4 5 13 10 12 10 7 9 7 6 6 10 13 14 12 11 11 10 10 10 11 10 13 12 12 9 8 8 6 5 4 3
5 7 10 13 11 10 2 7 8 8 2 5 18 15 12 11 11 10 9 10 10 11 11 10 11 10 8 7 5 5 6 4
5 5 3 14 12 13 9 11 10 12 6 12 17 15 13 13 12 13 12 12 11 10 10 9 7 10 8 8 7 5 5 4
6 3 2 9 12 14 13 12 13 14 12 16 17 15 14 14 12 12 11 10 11 9 8 9 8 7 5 5 5 4 4 2
2 4 3 6 10 13 16 5 4 7 14 17 18 16 15 13 13 12 12 11 11 12 9 7 5 5 5 4 3 3 4 3
7 7 9 7 11 12 17 13 2 10 14 16 17 16 14 12 12 11 12 12 12 11 9 7 4 4 2 1 3 4 1 6
6 9 6 11 11 13 14 14 11 12 14 17 18 17 14 14 13 12 12 12 11 10 9 8 6 2 2 1 3 1 5 6
7 4 6 10 9 16 10 13 16 13 13 16 18 18 17 16 16 15 12 11 11 10 10 8 7 6 3 2 4 4 4 7
10 9 4 13 15 17 14 10 15 15 14 15 18 19 18 16 16 14 12 12 9 9 11 9 6 4 3 5 5 4 4 5
10 6 8 12 8 10 10 12 14 15 16 16 16 18 18 17 14 13 12 11 12 11 11 11 8 6 6 7 5 5 5 5
9 9 9 14 12 8 8 12 15 16 15 16 17 16 14 13 12 12 11 11 11 9 9 9 8 8 7 7 5 5 5 5
9 4 6 10 11 11 5 11 14 16 15 13 11 8 10 11 11 10 5 8 9 9 8 8 7 8 8 7 6 5 5 6
7 3 8 8 12 4 1 6 8 11 10 9 8 8 4 5 7 8 8 7 8 9 11 8 5 3 3 4 5 5 4 3
12 9 7 6 12 10 5 4 6 6 4 6 4 6 5 5 3 4 5 6 7 9 10 6 9 8 6 6 5 5 3 4
11 11 11 8 8 12 9 6 3 4 6 5 7 1 4 6 5 6 7 7 8 8 9 8 8 6 8 5 4 6 2 4
Wind_Direction
260 271 29 99 140 109 108 123 155 141 318 35 65 132 141 109 147 144 148 148 126 147 152 156 160 158 157 155 150 151 150 152
253 68 75 84 124 133 136 136 166 126 107 108 67 141 122 140 149 154 150 148 136 154 157 160 162 159 159 156 158 162 161 156
235 96 117 135 146 156 140 113 144 163 116 98 114 103 126 141 158 150 145 135 149 154 159 161 166 165 161 158 156 156 157 165
196 110 130 136 159 168 140 128 115 165 139 121 117 138 140 153 158 150 143 144 135 157 162 169 169 164 159 157 159 164 173 178
84 116 147 142 172 186 153 157 167 134 149 114 159 137 152 156 139 149 151 153 152 162 160 170 166 166 167 163 168 170 185 193
175 172 111 143 176 186 181 146 114 189 159 166 157 149 146 139 161 166 163 160 162 167 170 176 167 172 175 170 162 159 158 169
139 200 125 155 176 193 138 157 190 182 63 101 138 157 157 163 170 166 175 168 176 178 167 186 163 158 176 169 171 169 160 126
93 82 134 174 201 173 189 182 189 178 129 145 152 163 170 179 182 181 178 180 179 183 176 181 166 152 182 159 178 171 157 162
156 66 349 174 204 177 213 195 200 190 154 160 168 173 186 190 185 180 176 180 185 182 183 187 175 170 169 167 152 156 152 212
84 164 223 193 202 198 216 182 241 190 154 173 181 183 192 192 183 184 182 184 185 174 181 209 174 192 159 172 166 175 74 350
247 252 253 252 218 211 214 224 212 171 165 183 191 189 198 192 193 190 189 187 192 179 179 180 224 173 214 233 184 60 40 45
260 262 234 223 211 213 224 217 207 204 193 193 197 195 195 195 200 201 202 193 196 188 173 186 208 199 143 64 95 53 49 36
216 207 183 216 200 221 213 214 212 210 204 207 204 196 199 198 203 202 203 206 196 195 181 203 185 187 137 98 88 70 74 50
143 180 135 209 200 212 204 198 221 214 206 212 211 206 200 207 205 205 211 199 199 204 182 188 177 170 132 111 107 91 68 53
142 206 154 221 250 102 186 211 228 219 215 210 219 211 205 209 209 209 207 223 197 206 210 181 155 130 119 122 110 95 75 49
189 159 199 194 251 168 183 211 224 225 222 222 217 218 206 216 222 208 216 209 217 194 209 172 157 148 135 135 124 107 76 45
189 120 252 238 237 243 201 227 233 232 227 226 246 231 207 201 227 214 206 196 201 180 166 171 171 171 167 153 138 115 74 34
214 172 236 222 237 174 289 271 292 287 281 255 223 205 170 217 208 194 190 181 175 166 168 165 152 172 139 156 115 105 72 55
239 172 229 246 237 172 123 99 84 67 38 32 342 294 198 177 155 146 152 152 158 153 148 138 140 140 140 140 160 174 124 50
224 223 236 190 269 161 138 132 111 81 65 36 11 178 109 111 94 77 83 96 114 128 134 140 150 168 189 211 236 32 44 63